Monument Pass, CO

7:00 AM MST on November 20, 2019 (GMT -0700)
Monument Pass

Weather History for KMNH - October, 2019

Change the Weather History Date:

Saturday, October 19, 2019

  Actual Average Record
Temperature  
Mean Temperature 42 °F -  
Max Temperature 57 °F - 75 °F (2003)
Min Temperature 26 °F - 17 °F (2006)
Degree Days  
Heating Degree Days 24    
Month to date heating degree days 358  
Cooling Degree Days 0    
Month to date cooling degree days 0  
Moisture  
Dew Point 18 °F    
Average Humidity 44    
Maximum Humidity 86    
Minimum Humidity 15    
Precipitation  
Precipitation 0.00 in - 0.02 in (2005)
Snow  
Snow 0.00 in - - ()
Snow Depth 0.00 in    
Sea Level Pressure  
Sea Level Pressure 29.90 in    
Wind  
Wind Speed 8 mph ()    
Max Wind Speed 18 mph    
Max Gust Speed 34 mph    
Visibility 10.0 miles    
Events      
T = Trace of Precipitation, MM = Missing Value Source: Averaged Metar Reports

Daily Weather History Graph

Daily Weather History Graph

Search for Another Location

Airport or City:

Astronomy

Oct. 19, 2019 Rise Set
Actual Time 7:12 AM MDT 6:14 PM MDT
Civil Twilight 6:45 AM MDT 6:41 PM MDT
Nautical Twilight 6:13 AM MDT 7:12 PM MDT
Astronomical Twilight 5:42 AM MDT 7:43 PM MDT
Moon 10:27 PM MDT (10/19) 12:45 PM MDT (10/19)
Length of Visible Light 11h 56m
Length of Day
11h 02m
Waning Gibbous, 69% of the Moon is Illuminated
Oct 19
Waning Gibbous
Oct 21
Last Quarter
Oct 27
New
Nov 4
First Quarter
Nov 12
Full

Hourly Weather History & Observations

Time (MDT) Temp. Windchill Dew Point Humidity Pressure Visibility Wind Dir Wind Speed Gust Speed Precip Events Conditions
12:12 AM 28.4 °F 22.2 °F 24.8 °F 86% 29.98 in 10.0 mi SSW 5.8 mph - N/A   Clear
12:52 AM 28.4 °F 22.2 °F 23.0 °F 80% 29.98 in 10.0 mi South 5.8 mph - N/A   Clear
1:12 AM 28.4 °F 22.2 °F 21.2 °F 74% 29.98 in 10.0 mi South 5.8 mph - N/A   Clear
1:30 AM 28.4 °F 24.6 °F 21.2 °F 74% 29.98 in 10.0 mi SSW 3.5 mph - N/A   Clear
1:48 AM 26.6 °F 19.1 °F 21.2 °F 80% 29.98 in 10.0 mi South 6.9 mph - N/A   Clear
2:12 AM 32.0 °F 23.0 °F 21.2 °F 64% 29.98 in 10.0 mi SSW 11.5 mph - N/A   Clear
2:30 AM 32.0 °F 25.6 °F 19.4 °F 60% 29.98 in 10.0 mi SSW 6.9 mph - N/A   Clear
2:48 AM 32.0 °F 23.6 °F 19.4 °F 60% 29.98 in 10.0 mi SSW 10.4 mph - N/A   Clear
3:12 AM 32.0 °F 26.4 °F 17.6 °F 55% 29.98 in 10.0 mi South 5.8 mph - N/A   Clear
3:30 AM 28.4 °F 18.5 °F 21.2 °F 74% 29.97 in 10.0 mi South 11.5 mph - N/A   Clear
3:48 AM 30.2 °F 21.9 °F 21.2 °F 69% 29.97 in 10.0 mi South 9.2 mph - N/A   Clear
4:12 AM 32.0 °F 27.5 °F 21.2 °F 64% 29.98 in 10.0 mi SSW 4.6 mph - N/A   Clear
4:30 AM 32.0 °F 24.8 °F 23.0 °F 69% 29.98 in 10.0 mi South 8.1 mph - N/A   Clear
4:48 AM 32.0 °F 25.6 °F 23.0 °F 69% 29.98 in 10.0 mi SSE 6.9 mph - N/A   Clear
5:11 AM 32.0 °F 22.5 °F 23.0 °F 69% 29.98 in 10.0 mi South 12.7 mph - N/A   Clear
5:53 AM 30.2 °F 21.3 °F 23.0 °F 75% 29.98 in 10.0 mi South 10.4 mph - N/A   Clear
6:12 AM 30.2 °F 21.9 °F 23.0 °F 75% 29.99 in 10.0 mi South 9.2 mph - N/A   Clear
6:30 AM 28.4 °F 19.7 °F 23.0 °F 80% 29.98 in 10.0 mi South 9.2 mph - N/A   Clear
6:48 AM 30.2 °F 21.9 °F 23.0 °F 75% 29.98 in 10.0 mi SSE 9.2 mph - N/A   Clear
7:12 AM 30.2 °F 21.3 °F 23.0 °F 75% 29.99 in 10.0 mi South 10.4 mph - N/A   Clear
7:30 AM 30.2 °F 22.6 °F 23.0 °F 75% 29.99 in 10.0 mi South 8.1 mph - N/A   Clear
7:48 AM 32.0 °F 24.2 °F 24.8 °F 75% 30.00 in 10.0 mi SSW 9.2 mph - N/A   Clear
8:12 AM 33.8 °F 25.3 °F 24.8 °F 70% 30.00 in 10.0 mi SSW 11.5 mph 17.3 mph N/A   Clear
8:30 AM 35.6 °F 27.5 °F 26.6 °F 70% 30.00 in 10.0 mi SSW 11.5 mph - N/A   Clear
8:48 AM 37.4 °F 30.3 °F 26.6 °F 65% 30.01 in 10.0 mi SSW 10.4 mph - N/A   Clear
9:12 AM 41.0 °F 33.9 °F 26.6 °F 57% 30.01 in 10.0 mi SSW 12.7 mph 18.4 mph N/A   Clear
9:30 AM 42.8 °F 36.6 °F 28.4 °F 57% 30.01 in 10.0 mi South 11.5 mph 17.3 mph N/A   Clear
9:48 AM 44.6 °F 38.1 °F 24.8 °F 46% 30.01 in 10.0 mi South 13.8 mph 19.6 mph N/A   Clear
10:12 AM 46.4 °F 41.9 °F 19.4 °F 34% 30.01 in 10.0 mi SSW 9.2 mph 17.3 mph N/A   Clear
10:30 AM 46.4 °F 40.4 °F 23.0 °F 40% 30.00 in 10.0 mi South 13.8 mph - N/A   Clear
10:48 AM 46.4 °F 40.4 °F 21.2 °F 37% 30.00 in 10.0 mi South 13.8 mph - N/A   Clear
11:12 AM 46.4 °F 42.4 °F 17.6 °F 32% 30.00 in 10.0 mi SSW 8.1 mph - N/A   Clear
11:30 AM 50.0 °F - 17.6 °F 28% 29.99 in 10.0 mi SSW 8.1 mph - N/A   Clear
11:48 AM 50.0 °F - 17.6 °F 28% 29.98 in 10.0 mi South 9.2 mph - N/A   Clear
12:12 PM 50.0 °F - 17.6 °F 28% 29.96 in 10.0 mi SSW 4.6 mph - N/A   Clear
12:30 PM 50.0 °F - 17.6 °F 28% 29.95 in 10.0 mi SSE 8.1 mph - N/A   Clear
12:53 PM 51.8 °F - 19.4 °F 28% 29.93 in 10.0 mi Calm Calm - N/A   Clear
1:12 PM 51.8 °F - 19.4 °F 28% 29.91 in 10.0 mi South 9.2 mph - N/A   Clear
1:30 PM 51.8 °F - 17.6 °F 26% 29.90 in 10.0 mi SSW 6.9 mph 16.1 mph N/A   Clear
1:48 PM 53.6 °F - 17.6 °F 24% 29.88 in 10.0 mi South 13.8 mph - N/A   Clear
2:12 PM 53.6 °F - 15.8 °F 22% 29.86 in 10.0 mi South 17.3 mph 25.3 mph N/A   Clear
2:30 PM 53.6 °F - 17.6 °F 24% 29.86 in 10.0 mi SSW 12.7 mph 27.6 mph N/A   Clear
2:48 PM 53.6 °F - 17.6 °F 24% 29.86 in 10.0 mi SSW 10.4 mph 26.5 mph N/A   Clear
3:12 PM 57.2 °F - 10.4 °F 16% 29.83 in 10.0 mi SSW 11.5 mph 34.5 mph N/A   Clear
3:30 PM 53.6 °F - 14.0 °F 21% 29.83 in 10.0 mi South 18.4 mph 26.5 mph N/A   Clear
3:48 PM 53.6 °F - 14.0 °F 21% 29.83 in 10.0 mi South 16.1 mph 23.0 mph N/A   Scattered Clouds
4:30 PM 53.6 °F - 12.2 °F 19% 29.82 in 10.0 mi South 15.0 mph - N/A   Scattered Clouds
4:53 PM 55.4 °F - 12.2 °F 18% 29.80 in 10.0 mi South 6.9 mph - N/A   Clear
5:12 PM 55.4 °F - 8.6 °F 15% 29.80 in 10.0 mi WSW 15.0 mph 24.2 mph N/A   Clear
5:30 PM 53.6 °F - 10.4 °F 18% 29.79 in 10.0 mi SSW 11.5 mph - N/A   Clear
5:48 PM 51.8 °F - 10.4 °F 19% 29.80 in 10.0 mi SSW 9.2 mph - N/A   Clear
6:12 PM 50.0 °F - 8.6 °F 19% 29.79 in 10.0 mi SW 13.8 mph 17.3 mph N/A   Scattered Clouds
6:30 PM 50.0 °F - 8.6 °F 19% 29.79 in 10.0 mi North - - N/A   Scattered Clouds
6:48 PM 50.0 °F - 8.6 °F 19% 29.79 in 10.0 mi SW 8.1 mph - N/A   Clear
7:12 PM 46.4 °F 41.9 °F 8.6 °F 22% 29.78 in 10.0 mi SSW 9.2 mph - N/A   Clear
7:30 PM 41.0 °F 36.4 °F 10.4 °F 29% 29.78 in 10.0 mi South 6.9 mph - N/A   Clear
7:48 PM 41.0 °F 34.7 °F 10.4 °F 29% 29.78 in 10.0 mi SSE 10.4 mph - N/A   Clear
8:12 PM 42.8 °F 37.5 °F 12.2 °F 29% 29.77 in 10.0 mi South 9.2 mph - N/A   Clear
8:30 PM 42.8 °F 37.5 °F 12.2 °F 29% 29.77 in 10.0 mi South 9.2 mph - N/A   Clear
8:48 PM 41.0 °F 35.2 °F 12.2 °F 31% 29.76 in 10.0 mi South 9.2 mph - N/A   Clear
9:12 PM 42.8 °F 38.0 °F 14.0 °F 31% 29.76 in 10.0 mi SSW 8.1 mph - N/A   Clear
9:30 PM 42.8 °F 38.6 °F 14.0 °F 31% 29.75 in 10.0 mi SSW 6.9 mph - N/A   Clear
9:48 PM 41.0 °F 34.7 °F 14.0 °F 33% 29.74 in 10.0 mi South 10.4 mph - N/A   Scattered Clouds
10:12 PM 41.0 °F - 14.0 °F 33% 29.74 in 10.0 mi North - - N/A   Clear
10:30 PM 39.2 °F - 14.0 °F 36% 29.73 in 10.0 mi North - - N/A   Clear
10:48 PM 37.4 °F - 15.8 °F 41% 29.72 in 10.0 mi North - - N/A   Clear
11:12 PM 37.4 °F 30.8 °F 14.0 °F 38% 29.71 in 10.0 mi South 9.2 mph - N/A   Clear
11:30 PM 37.4 °F 32.1 °F 14.0 °F 38% 29.70 in 10.0 mi SSW 6.9 mph - N/A   Clear
11:53 PM 42.8 °F - 10.4 °F 27% 29.68 in 10.0 mi Calm Calm - N/A   Clear